Regional Weather Roundup
Issued by NWS

Home | Current Version | Previous Version | Text Only | Print | Product List | Glossary Off
Versions: 1 2 3 4 5 6 7 8 9 10 11 12 13 14 15 16 17 18 19 20 21 22 23 24 25 26 27 28 29 30 31 32 33 34 35 36 37 38 39 40 41 42 43 44 45 46 47 48 49 50

000
ASUS43 KMKX 272320
RWRWI

WISCONSIN REGIONAL WEATHER ROUNDUP
NATIONAL WEATHER SERVICE MILWAUKEE/SULLIVAN WI
500 PM CST TUE JAN 27 2015

NOTE: "FAIR" INDICATES FEW OR NO CLOUDS BELOW 12,000 FEET WITH NO
SIGNIFICANT WEATHER AND/OR OBSTRUCTIONS TO VISIBILITY.

WIZ001-002-006>008-014>016-023>028-280000-
NORTHWEST WISCONSIN

CITY           SKY/WX    TMP DP  RH WIND       PRES   REMARKS
SUPERIOR ARPT  CLOUDY    30  24  79 S5        30.16S WCI  25
ASHLAND        CLOUDY    29  21  72 SW5       30.17F WCI  24
HAYWARD        CLOUDY    27  21  78 S6        30.14F WCI  20
SIREN          CLOUDY    30  24  78 S3        30.14F
CUMBERLAND     CLOUDY    28  21  74 SE8       30.14S WCI  20
RICE LAKE      CLOUDY    28  22  78 S6        30.17F WCI  22
CHETEK         CLOUDY    28  22  77 SE7       30.18R WCI  21
LADYSMITH      CLOUDY    28  22  79 SE3       30.18S
EAU CLAIRE     CLOUDY    29  20  69 SE7       30.18S WCI  22
MENOMONIE      MOCLDY    29  22  75 CALM      30.18S
NEW RICHMOND   CLOUDY    30  24  79 SE7       30.15F WCI  23
OSCEOLA        CLOUDY    31  25  79 SE9       30.18S WCI  23
$$

WIZ003>005-009-010-017-018-280000-
NORTH CENTRAL WISCONSIN

CITY           SKY/WX    TMP DP  RH WIND       PRES   REMARKS
MANITOWISH WTR CLOUDY    23  19  85 CALM      30.15R
ARBOR VITAE    CLOUDY    25  20  81 CALM      30.15S
WOODRUFF       CLOUDY    25  20  81 CALM      30.15S
RHINELANDER    CLOUDY    23  18  81 S3        30.16S
EAGLE RIVER    CLOUDY    23  17  78 CALM      30.15S
LAND O LAKES   CLOUDY    24  19  81 CALM      30.15S
PHILLIPS       CLOUDY    24  19  81 S3        30.15S
TOMAHAWK       CLOUDY    24  19  83 CALM      30.18R
MEDFORD        CLOUDY    25  19  80 SE3       30.17S
MERRILL        CLOUDY    25  19  77 CALM      30.19R
$$

WIZ029-030-035-036-043>047-280000-
CENTRAL WISCONSIN

CITY           SKY/WX    TMP DP  RH WIND       PRES   REMARKS
WAUSAU         CLOUDY    24  20  84 CALM      30.18R
MOSINEE        CLOUDY    25  23  93 S3        30.21R
MARSHFIELD     CLOUDY    25  20  81 S3        30.19R
STEVENS POINT  CLOUDY    23  19  86 CALM      30.22R
WAUPACA        CLOUDY    28  19  70 CALM      30.23R
WAUTOMA        CLOUDY    26  19  74 CALM      30.23S
WISC RAPIDS    CLOUDY    26  21  81 CALM      30.23R
CAMP DOUGLAS   CLOUDY    27  27 100 S3        30.21R
$$

WIZ011>013-019>022-031-037>040-048>050-280000-
NORTHEAST WISCONSIN

CITY           SKY/WX    TMP DP  RH WIND       PRES   REMARKS
ANTIGO         CLOUDY    22  19  85 S3        30.18R
SHAWANO        CLOUDY    28  18  66 CALM      30.24R
OCONTO         CLOUDY    20  17  85 CALM      30.25S
STURGEON BAY   PTCLDY    21  12  68 CALM      30.26S
GREEN BAY      CLOUDY    25  17  72 CALM      30.25R
MANITOWOC      CLOUDY    26  19  74 CALM      30.25R
APPLETON       CLOUDY    27  16  63 VRB3      30.23S
CLINTONVILLE   CLOUDY    27  19  74 CALM      30.23S
OSHKOSH        CLOUDY    26  16  65 NE5       30.23R WCI  20
$$

WIZ032>034-041-042-053>061-280000-
SOUTHWEST WISCONSIN

CITY           SKY/WX    TMP DP  RH WIND       PRES   REMARKS
LA CROSSE      CLOUDY    30  21  69 SE3       30.21S
SPARTA         CLOUDY    27  21  78 S3        30.22F
VIROQUA        CLOUDY    26  22  85 SE3       30.19S
BOSCOBEL       CLOUDY    29  21  72 CALM      30.24R
PRAIRIE DU CHI CLOUDY    30  22  71 E5        30.23R WCI  25
PLATTEVILLE    CLOUDY    28  22  81 CALM      30.21R
$$

WIZ056-057-062-063-064-067-068-280000-
SOUTH CENTRAL WISCONSIN

CITY           SKY/WX    TMP DP  RH WIND       PRES   REMARKS
REEDSBURG      CLOUDY    26  24  92 CALM      30.22R FOG
BARABOO/DELLS  CLOUDY    26  24  91 CALM      30.21R FOG
LONE ROCK      CLOUDY    28  23  81 SE3       30.23R HAZE
MINERAL POINT  CLOUDY    30  25  80 CALM      30.20R
MADISON        CLOUDY    27  22  81 NE3       30.21S
MIDDLETON      CLOUDY    29  26  88 CALM      30.21F
WATERTOWN      CLOUDY    28  20  71 CALM      30.22R
MONROE         CLOUDY    28  27  93 CALM      30.20R FOG
JANESVILLE     CLOUDY    30  25  80 N6        30.21S WCI  24
$$

WIZ051-052-058>065-066-070>072-280000-
SOUTHEAST WISCONSIN

CITY           SKY/WX    TMP DP  RH WIND       PRES   REMARKS
MILWAUKEE      MOCLDY    26  15  63 NE5       30.24R WCI  20
WAUKESHA       CLOUDY    27  16  63 NE5       30.23R WCI  21
MILWAUKEE/TIMM CLOUDY    27  16  63 NE5       30.24R WCI  21
RACINE         PTCLDY    26  16  65 N8        30.25R WCI  18
BURLINGTON     CLOUDY    26  16  65 E5        30.22S WCI  21
KENOSHA        CLEAR     26  17  68 NE6       30.24R WCI  19
FOND DU LAC    CLOUDY    26  17  68 N7        30.22S WCI  18
SHEBOYGAN      CLOUDY    26  18  71 NE5       30.24R WCI  20
WEST BEND      CLOUDY    28  18  64 NE5       30.22R WCI  23
JUNEAU         CLOUDY    27  19  72 CALM      30.23R
$$

LSZ147-162-280000-
LAKE SUPERIOR

STATION/POSITION TIME  TEMP    WIND        PRES    WAVE
                       AIR SEA DIR/SP/G            HT/PER
                 (UTC) (F)     (DEG/KT/KT) (MB)    (FT/S)
DEVILS ISLAND    2300   29     150/  2/  2 1022.6F
PORT WING        2240   31     170/  5/  6 1021.7S
SAXON HARBOR     2200   30        CALM     1022.4R
$$

LMZ867-665-643>646-280000-
LAKE MICHIGAN

STATION/POSITION TIME  TEMP    WIND        PRES    WAVE
                       AIR SEA DIR/SP/G            HT/PER
                 (UTC) (F)     (DEG/KT/KT) (MB)    (FT/S)
NORTHPORT PIER   2300   22      CALM  /  9 1024.4R
SISTER BAY       2213   27     360/  8/  9   N/A
KEWAUNEE LAKESHO 2200   26      20/  1/  3 1023.0R
SHEBOYGAN LAKESH 2300   27      20/  7/  9 1025.4R
PORT WASHINGTON  2200   28      30/  6/  9 1024.4
MILWAUKEE LAKESH 2300   28      10/  8/ 10   N/A
KENOSHA   LAKESH 2300   27      10/  7/ 12 1024.0R
$$

TC  - TEMPERATURE IN CELSIUS
VSB - VISIBILITY IN STATUTE MILES
WCI - WIND CHILL INDEX
HX  - HEAT INDEX



USA.gov is the U.S. government's official web portal to all federal, state and local government web resources and services.